Year,Month,Day,Hour,Minute,Value (Times are PST for temperature in C)
2014,07,11,00,00,16.60
2014,07,11,00,01,16.50
2014,07,11,00,02,16.50
2014,07,11,00,03,16.40
2014,07,11,00,04,16.40
2014,07,11,00,05,16.30
2014,07,11,00,06,16.30
2014,07,11,00,07,16.30
2014,07,11,00,08,16.20
2014,07,11,00,09,16.20
2014,07,11,00,10,16.10
2014,07,11,00,11,16.10
2014,07,11,00,12,16.10
2014,07,11,00,13,16.00
2014,07,11,00,14,15.90
2014,07,11,00,15,15.90
2014,07,11,00,16,15.90
2014,07,11,00,17,15.80
2014,07,11,00,18,15.80
2014,07,11,00,19,15.80
2014,07,11,00,20,15.80
2014,07,11,00,21,15.80
2014,07,11,00,22,15.80
2014,07,11,00,23,15.80
2014,07,11,00,24,15.80
2014,07,11,00,25,15.80
2014,07,11,00,26,15.80
2014,07,11,00,27,15.80
2014,07,11,00,28,15.80
2014,07,11,00,29,15.80
2014,07,11,00,30,15.80
2014,07,11,00,31,15.80
2014,07,11,00,32,15.90
2014,07,11,00,33,15.90
2014,07,11,00,34,15.90
2014,07,11,00,35,16.00
2014,07,11,00,36,16.00
2014,07,11,00,37,16.10
2014,07,11,00,38,16.10
2014,07,11,00,39,16.10
2014,07,11,00,40,16.10
2014,07,11,00,41,16.00
2014,07,11,00,42,16.00
2014,07,11,00,43,15.90
2014,07,11,00,44,15.90
2014,07,11,00,45,15.80
2014,07,11,00,46,15.80
2014,07,11,00,47,15.70
2014,07,11,00,48,15.60
2014,07,11,00,49,15.60
2014,07,11,00,50,15.50
2014,07,11,00,51,15.50
2014,07,11,00,52,15.40
2014,07,11,00,53,15.40
2014,07,11,00,54,15.40
2014,07,11,00,55,15.40
2014,07,11,00,56,15.40
2014,07,11,00,57,15.40
2014,07,11,00,58,15.40
2014,07,11,00,59,15.40
2014,07,11,01,00,15.40
2014,07,11,01,01,15.40
2014,07,11,01,02,15.40
2014,07,11,01,03,15.50
2014,07,11,01,04,15.50
2014,07,11,01,05,15.60
2014,07,11,01,06,15.60
2014,07,11,01,07,15.60
2014,07,11,01,08,15.70
2014,07,11,01,09,15.70
2014,07,11,01,10,15.80
2014,07,11,01,11,15.90
2014,07,11,01,12,15.90
2014,07,11,01,13,16.00
2014,07,11,01,14,16.10
2014,07,11,01,15,16.20
2014,07,11,01,16,16.20
2014,07,11,01,17,16.30
2014,07,11,01,18,16.40
2014,07,11,01,19,16.40
2014,07,11,01,20,16.50
2014,07,11,01,21,16.50
2014,07,11,01,22,16.60
2014,07,11,01,23,16.60
2014,07,11,01,24,16.60
2014,07,11,01,25,16.60
2014,07,11,01,26,16.60
2014,07,11,01,27,16.60
2014,07,11,01,28,16.60
2014,07,11,01,29,16.60
2014,07,11,01,30,16.60
2014,07,11,01,31,16.60
2014,07,11,01,32,16.70
2014,07,11,01,33,16.70
2014,07,11,01,34,16.70
2014,07,11,01,35,16.60
2014,07,11,01,36,16.60
2014,07,11,01,37,16.60
2014,07,11,01,38,16.60
2014,07,11,01,39,16.70
2014,07,11,01,40,16.70
2014,07,11,01,41,16.70
2014,07,11,01,42,16.70
2014,07,11,01,43,16.70
2014,07,11,01,44,16.70
2014,07,11,01,45,16.70
2014,07,11,01,46,16.70
2014,07,11,01,47,16.70
2014,07,11,01,48,16.70
2014,07,11,01,49,16.70
2014,07,11,01,50,16.60
2014,07,11,01,51,16.60
2014,07,11,01,52,16.60
2014,07,11,01,53,16.60
2014,07,11,01,54,16.60
2014,07,11,01,55,16.60
2014,07,11,01,56,16.60
2014,07,11,01,57,16.60
2014,07,11,01,58,16.60
2014,07,11,01,59,16.60
2014,07,11,02,00,16.50
2014,07,11,02,01,16.50
2014,07,11,02,02,16.50
2014,07,11,02,03,16.50
2014,07,11,02,04,16.40
2014,07,11,02,05,16.50
2014,07,11,02,06,16.50
2014,07,11,02,07,16.50
2014,07,11,02,08,16.50
2014,07,11,02,09,16.50
2014,07,11,02,10,16.50
2014,07,11,02,11,16.50
2014,07,11,02,12,16.50
2014,07,11,02,13,16.60
2014,07,11,02,14,16.60
2014,07,11,02,15,16.60
2014,07,11,02,16,16.60
2014,07,11,02,17,16.60
2014,07,11,02,18,16.60
2014,07,11,02,19,16.60
2014,07,11,02,20,16.70
2014,07,11,02,21,16.70
2014,07,11,02,22,16.70
2014,07,11,02,23,16.70
2014,07,11,02,24,16.60
2014,07,11,02,25,16.60
2014,07,11,02,26,16.50
2014,07,11,02,27,16.50
2014,07,11,02,28,16.50
2014,07,11,02,29,16.40
2014,07,11,02,30,16.40
2014,07,11,02,31,16.40
2014,07,11,02,32,16.40
2014,07,11,02,33,16.30
2014,07,11,02,34,16.30
2014,07,11,02,35,16.30
2014,07,11,02,36,16.30
2014,07,11,02,37,16.30
2014,07,11,02,38,16.30
2014,07,11,02,39,16.30
2014,07,11,02,40,16.30
2014,07,11,02,41,16.30
2014,07,11,02,42,16.30
2014,07,11,02,43,16.30
2014,07,11,02,44,16.30
2014,07,11,02,45,16.30
2014,07,11,02,46,16.30
2014,07,11,02,47,16.30
2014,07,11,02,48,16.20
2014,07,11,02,49,16.30
2014,07,11,02,50,16.20
2014,07,11,02,51,16.20
2014,07,11,02,52,16.20
2014,07,11,02,53,16.20
2014,07,11,02,54,16.20
2014,07,11,02,55,16.20
2014,07,11,02,56,16.20
2014,07,11,02,57,16.20
2014,07,11,02,58,16.20
2014,07,11,02,59,16.20
2014,07,11,03,00,16.20
2014,07,11,03,01,16.20
2014,07,11,03,02,16.20
2014,07,11,03,03,16.20
2014,07,11,03,04,16.20
2014,07,11,03,05,16.20
2014,07,11,03,06,16.10
2014,07,11,03,07,16.10
2014,07,11,03,08,16.10
2014,07,11,03,09,16.10
2014,07,11,03,10,16.10
2014,07,11,03,11,16.10
2014,07,11,03,12,16.10
2014,07,11,03,13,16.10
2014,07,11,03,14,16.10
2014,07,11,03,15,16.10
2014,07,11,03,16,16.10
2014,07,11,03,17,16.10
2014,07,11,03,18,16.10
2014,07,11,03,19,16.10
2014,07,11,03,20,16.10
2014,07,11,03,21,16.10
2014,07,11,03,22,16.10
2014,07,11,03,23,16.10
2014,07,11,03,24,16.00
2014,07,11,03,25,16.00
2014,07,11,03,26,16.00
2014,07,11,03,27,16.00
2014,07,11,03,28,16.00
2014,07,11,03,29,16.00
2014,07,11,03,30,16.00
2014,07,11,03,31,16.10
2014,07,11,03,32,16.00
2014,07,11,03,33,16.10
2014,07,11,03,34,16.10
2014,07,11,03,35,16.00
2014,07,11,03,36,16.00
2014,07,11,03,37,16.00
2014,07,11,03,38,16.00
2014,07,11,03,39,16.00
2014,07,11,03,40,16.00
2014,07,11,03,41,16.00
2014,07,11,03,42,15.90
2014,07,11,03,43,15.90
2014,07,11,03,44,15.90
2014,07,11,03,45,15.90
2014,07,11,03,46,15.90
2014,07,11,03,47,15.90
2014,07,11,03,48,15.80
2014,07,11,03,49,15.80
2014,07,11,03,50,15.80
2014,07,11,03,51,15.80
2014,07,11,03,52,15.80
2014,07,11,03,53,15.80
2014,07,11,03,54,15.70
2014,07,11,03,55,15.70
2014,07,11,03,56,15.70
2014,07,11,03,57,15.70
2014,07,11,03,58,15.70
2014,07,11,03,59,15.60
2014,07,11,04,00,15.60
2014,07,11,04,01,15.60
2014,07,11,04,02,15.60
2014,07,11,04,03,15.60
2014,07,11,04,04,15.60
2014,07,11,04,05,15.60
2014,07,11,04,06,15.60
2014,07,11,04,07,15.60
2014,07,11,04,08,15.50
2014,07,11,04,09,15.50
2014,07,11,04,10,15.50
2014,07,11,04,11,15.40
2014,07,11,04,12,15.40
2014,07,11,04,13,15.40
2014,07,11,04,14,15.40
2014,07,11,04,15,15.40
2014,07,11,04,16,15.40
2014,07,11,04,17,15.40
2014,07,11,04,18,15.40
2014,07,11,04,19,15.40
2014,07,11,04,20,15.30
2014,07,11,04,21,15.30
2014,07,11,04,22,15.30
2014,07,11,04,23,15.30
2014,07,11,04,24,15.20
2014,07,11,04,25,15.20
2014,07,11,04,26,15.20
2014,07,11,04,27,15.20
2014,07,11,04,28,15.20
2014,07,11,04,29,15.20
2014,07,11,04,30,15.20
2014,07,11,04,31,15.20
2014,07,11,04,32,15.20
2014,07,11,04,33,15.20
2014,07,11,04,34,15.20
2014,07,11,04,35,15.20
2014,07,11,04,36,15.20
2014,07,11,04,37,15.10
2014,07,11,04,38,15.10
2014,07,11,04,39,15.10
2014,07,11,04,40,15.10
2014,07,11,04,41,15.10
2014,07,11,04,42,15.10
2014,07,11,04,43,15.10
2014,07,11,04,44,15.10
2014,07,11,04,45,15.10
2014,07,11,04,46,15.00
2014,07,11,04,47,15.00
2014,07,11,04,48,15.00
2014,07,11,04,49,15.00
2014,07,11,04,50,15.00
2014,07,11,04,51,15.00
2014,07,11,04,52,15.00
2014,07,11,04,53,14.90
2014,07,11,04,54,14.90
2014,07,11,04,55,14.90
2014,07,11,04,56,14.90
2014,07,11,04,57,14.80
2014,07,11,04,58,14.80
2014,07,11,04,59,14.80
2014,07,11,05,00,14.80
2014,07,11,05,01,14.80
2014,07,11,05,02,14.80
2014,07,11,05,03,14.80
2014,07,11,05,04,14.80
2014,07,11,05,05,14.80
2014,07,11,05,06,14.80
2014,07,11,05,07,14.80
2014,07,11,05,08,14.80
2014,07,11,05,09,14.80
2014,07,11,05,10,14.80
2014,07,11,05,11,14.80
2014,07,11,05,12,14.80
2014,07,11,05,13,14.80
2014,07,11,05,14,14.80
2014,07,11,05,15,14.80
2014,07,11,05,16,14.80
2014,07,11,05,17,14.80
2014,07,11,05,18,14.80
2014,07,11,05,19,14.80
2014,07,11,05,20,14.80
2014,07,11,05,21,14.70
2014,07,11,05,22,14.70
2014,07,11,05,23,14.70
2014,07,11,05,24,14.60
2014,07,11,05,25,14.60
2014,07,11,05,26,14.60
2014,07,11,05,27,14.60
2014,07,11,05,28,14.60
2014,07,11,05,29,14.60
2014,07,11,05,30,14.60
2014,07,11,05,31,14.60
2014,07,11,05,32,14.60
2014,07,11,05,33,14.60
2014,07,11,05,34,14.60
2014,07,11,05,35,14.60
2014,07,11,05,36,14.60
2014,07,11,05,37,14.60
2014,07,11,05,38,14.60
2014,07,11,05,39,14.60
2014,07,11,05,40,14.60
2014,07,11,05,41,14.50
2014,07,11,05,42,14.50
2014,07,11,05,43,14.50
2014,07,11,05,44,14.50
2014,07,11,05,45,14.50
2014,07,11,05,46,14.50
2014,07,11,05,47,14.50
2014,07,11,05,48,14.50
2014,07,11,05,49,14.50
2014,07,11,05,50,14.50
2014,07,11,05,51,14.60
2014,07,11,05,52,14.60
2014,07,11,05,53,14.60
2014,07,11,05,54,14.60
2014,07,11,05,55,14.60
2014,07,11,05,56,14.60
2014,07,11,05,57,14.70
2014,07,11,05,58,14.70
2014,07,11,05,59,14.70
2014,07,11,06,00,14.70
2014,07,11,06,01,14.70
2014,07,11,06,02,14.70
2014,07,11,06,03,14.70
2014,07,11,06,04,14.70
2014,07,11,06,05,14.70
2014,07,11,06,06,14.70
2014,07,11,06,07,14.70
2014,07,11,06,08,14.80
2014,07,11,06,09,14.80
2014,07,11,06,10,14.80
2014,07,11,06,11,14.80
2014,07,11,06,12,14.80
2014,07,11,06,13,14.80
2014,07,11,06,14,14.80
2014,07,11,06,15,14.80
2014,07,11,06,16,14.80
2014,07,11,06,17,14.80
2014,07,11,06,18,14.70
2014,07,11,06,19,14.70
2014,07,11,06,20,14.60
2014,07,11,06,21,14.60
2014,07,11,06,22,14.60
2014,07,11,06,23,14.50
2014,07,11,06,24,14.50
2014,07,11,06,25,14.50
2014,07,11,06,26,14.50
2014,07,11,06,27,14.50
2014,07,11,06,28,14.40
2014,07,11,06,29,14.40
2014,07,11,06,30,14.40
2014,07,11,06,31,14.40
2014,07,11,06,32,14.50
2014,07,11,06,33,14.50
2014,07,11,06,34,14.50
2014,07,11,06,35,14.50
2014,07,11,06,36,14.60
2014,07,11,06,37,14.60
2014,07,11,06,38,14.60
2014,07,11,06,39,14.60
2014,07,11,06,40,14.70
2014,07,11,06,41,14.70
2014,07,11,06,42,14.80
2014,07,11,06,43,14.80
2014,07,11,06,44,14.80
2014,07,11,06,45,14.90
2014,07,11,06,46,15.00
2014,07,11,06,47,15.00
2014,07,11,06,48,15.10
2014,07,11,06,49,15.20
2014,07,11,06,50,15.20
2014,07,11,06,51,15.30
2014,07,11,06,52,15.30
2014,07,11,06,53,15.30
2014,07,11,06,54,15.30
2014,07,11,06,55,15.30
2014,07,11,06,56,15.30
2014,07,11,06,57,15.30
2014,07,11,06,58,15.20
2014,07,11,06,59,15.10
2014,07,11,07,00,15.00
2014,07,11,07,01,14.90
2014,07,11,07,02,14.80
2014,07,11,07,03,14.80
2014,07,11,07,04,14.80
2014,07,11,07,05,14.80
2014,07,11,07,06,14.80
2014,07,11,07,07,14.80
2014,07,11,07,08,14.80
2014,07,11,07,09,14.80
2014,07,11,07,10,14.80
2014,07,11,07,11,14.80
2014,07,11,07,12,14.80
2014,07,11,07,13,14.80
2014,07,11,07,14,14.80
2014,07,11,07,15,14.80
2014,07,11,07,16,14.90
2014,07,11,07,17,14.90
2014,07,11,07,18,14.90
2014,07,11,07,19,14.80
2014,07,11,07,20,14.80
2014,07,11,07,21,14.80
2014,07,11,07,22,14.80
2014,07,11,07,23,14.80
2014,07,11,07,24,14.80
2014,07,11,07,25,14.80
2014,07,11,07,26,14.90
2014,07,11,07,27,14.90
2014,07,11,07,28,15.00
2014,07,11,07,29,15.00
2014,07,11,07,30,15.00
2014,07,11,07,31,15.00
2014,07,11,07,32,15.00
2014,07,11,07,33,14.90
2014,07,11,07,34,14.90
2014,07,11,07,35,14.90
2014,07,11,07,36,14.90
2014,07,11,07,37,15.00
2014,07,11,07,38,15.00
2014,07,11,07,39,15.00
2014,07,11,07,40,15.10
2014,07,11,07,41,15.10
2014,07,11,07,42,15.10
2014,07,11,07,43,15.10
2014,07,11,07,44,15.00
2014,07,11,07,45,14.90
2014,07,11,07,46,14.80
2014,07,11,07,47,14.80
2014,07,11,07,48,14.70
2014,07,11,07,49,14.70
2014,07,11,07,50,14.70
2014,07,11,07,51,14.70
2014,07,11,07,52,14.70
2014,07,11,07,53,14.70
2014,07,11,07,54,14.70
2014,07,11,07,55,14.70
2014,07,11,07,56,14.70
2014,07,11,07,57,14.70
2014,07,11,07,58,14.70
2014,07,11,07,59,14.80
2014,07,11,08,00,14.80
2014,07,11,08,01,14.90
2014,07,11,08,02,14.90
2014,07,11,08,03,14.90
2014,07,11,08,04,15.00
2014,07,11,08,05,15.00
2014,07,11,08,06,15.00
2014,07,11,08,07,15.00
2014,07,11,08,08,15.00
2014,07,11,08,09,15.10
2014,07,11,08,10,15.10
2014,07,11,08,11,15.10
2014,07,11,08,12,15.10
2014,07,11,08,13,15.20
2014,07,11,08,14,15.30
2014,07,11,08,15,15.30
2014,07,11,08,16,15.30
2014,07,11,08,17,15.40
2014,07,11,08,18,15.40
2014,07,11,08,19,15.40
2014,07,11,08,20,15.50
2014,07,11,08,21,15.50
2014,07,11,08,22,15.60
2014,07,11,08,23,15.60
2014,07,11,08,24,15.60
2014,07,11,08,25,15.60
2014,07,11,08,26,15.60
2014,07,11,08,27,15.60
2014,07,11,08,28,15.70
2014,07,11,08,29,15.70
2014,07,11,08,30,15.70
2014,07,11,08,31,15.70
2014,07,11,08,32,15.70
2014,07,11,08,33,15.80
2014,07,11,08,34,15.80
2014,07,11,08,35,15.90
2014,07,11,08,36,15.90
2014,07,11,08,37,15.90
2014,07,11,08,38,15.90
2014,07,11,08,39,15.90
2014,07,11,08,40,15.90
2014,07,11,08,41,15.90
2014,07,11,08,42,15.90
2014,07,11,08,43,15.90
2014,07,11,08,44,15.90
2014,07,11,08,45,15.90
2014,07,11,08,46,15.90
2014,07,11,08,47,15.90
2014,07,11,08,48,15.90
2014,07,11,08,49,15.90
2014,07,11,08,50,16.00
2014,07,11,08,51,16.00
2014,07,11,08,52,16.10
2014,07,11,08,53,16.10
2014,07,11,08,54,16.10
2014,07,11,08,55,16.10
2014,07,11,08,56,16.20
2014,07,11,08,57,16.20
2014,07,11,08,58,16.20
2014,07,11,08,59,16.20
2014,07,11,09,00,16.20
2014,07,11,09,01,16.20
2014,07,11,09,02,16.20
2014,07,11,09,03,16.20
2014,07,11,09,04,16.20
2014,07,11,09,05,16.20
2014,07,11,09,06,16.20
2014,07,11,09,07,16.20
2014,07,11,09,08,16.20
2014,07,11,09,09,16.30
2014,07,11,09,10,16.30
2014,07,11,09,11,16.30
2014,07,11,09,12,16.30
2014,07,11,09,13,16.30
2014,07,11,09,14,16.30
2014,07,11,09,15,16.40
2014,07,11,09,16,16.50
2014,07,11,09,17,16.50
2014,07,11,09,18,16.50
2014,07,11,09,19,16.50
2014,07,11,09,20,16.50
2014,07,11,09,21,16.50
2014,07,11,09,22,16.40
2014,07,11,09,23,16.40
2014,07,11,09,24,16.40
2014,07,11,09,25,16.50
2014,07,11,09,26,16.50
2014,07,11,09,27,16.60
2014,07,11,09,28,16.60
2014,07,11,09,29,16.70
2014,07,11,09,30,16.70
2014,07,11,09,31,16.80
2014,07,11,09,32,16.80
2014,07,11,09,33,16.80
2014,07,11,09,34,16.80
2014,07,11,09,35,16.70
2014,07,11,09,36,16.70
2014,07,11,09,37,16.70
2014,07,11,09,38,16.70
2014,07,11,09,39,16.70
2014,07,11,09,40,16.80
2014,07,11,09,41,16.80
2014,07,11,09,42,16.80
2014,07,11,09,43,16.80
2014,07,11,09,44,16.80
2014,07,11,09,45,16.80
2014,07,11,09,46,16.90
2014,07,11,09,47,16.90
2014,07,11,09,48,17.00
2014,07,11,09,49,17.00
2014,07,11,09,50,17.00
2014,07,11,09,51,17.00
2014,07,11,09,52,17.10
2014,07,11,09,53,17.10
2014,07,11,09,54,17.20
2014,07,11,09,55,17.20
2014,07,11,09,56,17.30
2014,07,11,09,57,17.30
2014,07,11,09,58,17.40
2014,07,11,09,59,17.50
2014,07,11,10,00,17.60
2014,07,11,10,01,17.60
2014,07,11,10,02,17.60
2014,07,11,10,03,17.60
2014,07,11,10,04,17.70
2014,07,11,10,05,17.70
2014,07,11,10,06,17.80
2014,07,11,10,07,17.80
2014,07,11,10,08,17.90
2014,07,11,10,09,17.90
2014,07,11,10,10,17.90
2014,07,11,10,11,17.90
2014,07,11,10,12,17.90
2014,07,11,10,13,18.00
2014,07,11,10,14,18.10
2014,07,11,10,15,18.10
2014,07,11,10,16,18.20
2014,07,11,10,17,18.20
2014,07,11,10,18,18.20
2014,07,11,10,19,18.20
2014,07,11,10,20,18.10
2014,07,11,10,21,18.20
2014,07,11,10,22,18.20
2014,07,11,10,23,18.30
2014,07,11,10,24,18.30
2014,07,11,10,25,18.30
2014,07,11,10,26,18.30
2014,07,11,10,27,18.40
2014,07,11,10,28,18.40
2014,07,11,10,29,18.40
2014,07,11,10,30,18.40
2014,07,11,10,31,18.40
2014,07,11,10,32,18.50
2014,07,11,10,33,18.50
2014,07,11,10,34,18.60
2014,07,11,10,35,18.70
2014,07,11,10,36,18.70
2014,07,11,10,37,18.60
2014,07,11,10,38,18.50
2014,07,11,10,39,18.50
2014,07,11,10,40,18.50
2014,07,11,10,41,18.50
2014,07,11,10,42,18.60
2014,07,11,10,43,18.60
2014,07,11,10,44,18.60
2014,07,11,10,45,18.60
2014,07,11,10,46,18.70
2014,07,11,10,47,18.80
2014,07,11,10,48,18.90
2014,07,11,10,49,19.00
2014,07,11,10,50,19.10
2014,07,11,10,51,19.20
2014,07,11,10,52,19.30
2014,07,11,10,53,19.30
2014,07,11,10,54,19.30
2014,07,11,10,55,19.30
2014,07,11,10,56,19.30
2014,07,11,10,57,19.20
2014,07,11,10,58,19.10
2014,07,11,10,59,19.10
2014,07,11,11,00,19.10
2014,07,11,11,01,19.10
2014,07,11,11,02,19.10
2014,07,11,11,03,19.20
2014,07,11,11,04,19.30
2014,07,11,11,05,19.30
2014,07,11,11,06,19.30
2014,07,11,11,07,19.20
2014,07,11,11,08,19.20
2014,07,11,11,09,19.30
2014,07,11,11,10,19.30
2014,07,11,11,11,19.30
2014,07,11,11,12,19.30
2014,07,11,11,13,19.20
2014,07,11,11,14,19.10
2014,07,11,11,15,19.10
2014,07,11,11,16,19.00
2014,07,11,11,17,19.10
2014,07,11,11,18,19.10
2014,07,11,11,19,19.20
2014,07,11,11,20,19.30
2014,07,11,11,21,19.40
2014,07,11,11,22,19.50
2014,07,11,11,23,19.70
2014,07,11,11,24,19.70
2014,07,11,11,25,19.80
2014,07,11,11,26,19.80
2014,07,11,11,27,19.80
2014,07,11,11,28,19.90
2014,07,11,11,29,19.90
2014,07,11,11,30,20.00
2014,07,11,11,31,20.00
2014,07,11,11,32,20.10
2014,07,11,11,33,20.10
2014,07,11,11,34,20.20
2014,07,11,11,35,20.30
2014,07,11,11,36,20.40
2014,07,11,11,37,20.50
2014,07,11,11,38,20.70
2014,07,11,11,39,20.90
2014,07,11,11,40,21.00
2014,07,11,11,41,21.10
2014,07,11,11,42,21.20
2014,07,11,11,43,21.20
2014,07,11,11,44,21.10
2014,07,11,11,45,21.10
2014,07,11,11,46,21.10
2014,07,11,11,47,21.00
2014,07,11,11,48,21.00
2014,07,11,11,49,21.00
2014,07,11,11,50,20.90
2014,07,11,11,51,21.00
2014,07,11,11,52,21.10
2014,07,11,11,53,21.20
2014,07,11,11,54,21.20
2014,07,11,11,55,21.30
2014,07,11,11,56,21.30
2014,07,11,11,57,21.30
2014,07,11,11,58,21.40
2014,07,11,11,59,21.40
2014,07,11,12,00,21.40
2014,07,11,12,01,21.40
2014,07,11,12,02,21.40
2014,07,11,12,03,21.60
2014,07,11,12,04,21.70
2014,07,11,12,05,21.70
2014,07,11,12,06,21.80
2014,07,11,12,07,21.90
2014,07,11,12,08,22.00
2014,07,11,12,09,22.10
2014,07,11,12,10,22.10
2014,07,11,12,11,22.10
2014,07,11,12,12,22.10
2014,07,11,12,13,22.10
2014,07,11,12,14,22.10
2014,07,11,12,15,22.20
2014,07,11,12,16,22.30
2014,07,11,12,17,22.30
2014,07,11,12,18,22.30
2014,07,11,12,19,22.30
2014,07,11,12,20,22.30
2014,07,11,12,21,22.40
2014,07,11,12,22,22.40
2014,07,11,12,23,22.50
2014,07,11,12,24,22.60
2014,07,11,12,25,22.80
2014,07,11,12,26,22.90
2014,07,11,12,27,23.10
2014,07,11,12,28,23.20
2014,07,11,12,29,23.30
2014,07,11,12,30,23.30
2014,07,11,12,31,23.30
2014,07,11,12,32,23.40
2014,07,11,12,33,23.40
2014,07,11,12,34,23.50
2014,07,11,12,35,23.60
2014,07,11,12,36,23.70
2014,07,11,12,37,23.80
2014,07,11,12,38,23.80
2014,07,11,12,39,23.90
2014,07,11,12,40,24.10
2014,07,11,12,41,24.20
2014,07,11,12,42,24.20
2014,07,11,12,43,24.20
2014,07,11,12,44,24.20
2014,07,11,12,45,24.20
2014,07,11,12,46,24.20
2014,07,11,12,47,24.20
2014,07,11,12,48,24.20
2014,07,11,12,49,24.20
2014,07,11,12,50,24.20
2014,07,11,12,51,24.20
2014,07,11,12,52,24.20
2014,07,11,12,53,24.20
2014,07,11,12,54,24.20
2014,07,11,12,55,24.20
2014,07,11,12,56,24.20
2014,07,11,12,57,24.20
2014,07,11,12,58,24.30
2014,07,11,12,59,24.40
2014,07,11,13,00,24.50
2014,07,11,13,01,24.70
2014,07,11,13,02,24.80
2014,07,11,13,03,25.00
2014,07,11,13,04,25.10
2014,07,11,13,05,25.30
2014,07,11,13,06,25.40
2014,07,11,13,07,25.50
2014,07,11,13,08,25.60
2014,07,11,13,09,25.70
2014,07,11,13,10,25.70
2014,07,11,13,11,25.70
2014,07,11,13,12,25.80
2014,07,11,13,13,25.90
2014,07,11,13,14,26.00
2014,07,11,13,15,26.00
2014,07,11,13,16,26.10
2014,07,11,13,17,26.10
2014,07,11,13,18,26.20
2014,07,11,13,19,26.30
2014,07,11,13,20,26.30
2014,07,11,13,21,26.30
2014,07,11,13,22,26.30
2014,07,11,13,23,26.30
2014,07,11,13,24,26.30
2014,07,11,13,25,26.30
2014,07,11,13,26,26.30
2014,07,11,13,27,26.30
2014,07,11,13,28,26.30
2014,07,11,13,29,26.30
2014,07,11,13,30,26.20
2014,07,11,13,31,26.20
2014,07,11,13,32,26.20
2014,07,11,13,33,26.20
2014,07,11,13,34,26.30
2014,07,11,13,35,26.30
2014,07,11,13,36,26.30
2014,07,11,13,37,26.20
2014,07,11,13,38,26.10
2014,07,11,13,39,26.10
2014,07,11,13,40,26.10
2014,07,11,13,41,26.10
2014,07,11,13,42,26.10
2014,07,11,13,43,26.20
2014,07,11,13,44,26.20
2014,07,11,13,45,26.20
2014,07,11,13,46,26.30
2014,07,11,13,47,26.30
2014,07,11,13,48,26.30
2014,07,11,13,49,26.40
2014,07,11,13,50,26.50
2014,07,11,13,51,26.60
2014,07,11,13,52,26.60
2014,07,11,13,53,26.70
2014,07,11,13,54,26.70
2014,07,11,13,55,26.70
2014,07,11,13,56,26.70
2014,07,11,13,57,26.70
2014,07,11,13,58,26.70
2014,07,11,13,59,26.70
2014,07,11,14,00,26.70
2014,07,11,14,01,26.70
2014,07,11,14,02,26.80
2014,07,11,14,03,26.90
2014,07,11,14,04,27.00
2014,07,11,14,05,27.10
2014,07,11,14,06,27.10
2014,07,11,14,07,27.20
2014,07,11,14,08,27.20
2014,07,11,14,09,27.20
2014,07,11,14,10,27.20
2014,07,11,14,11,27.20
2014,07,11,14,12,27.20
2014,07,11,14,13,27.20
2014,07,11,14,14,27.20
2014,07,11,14,15,27.20
2014,07,11,14,16,27.10
2014,07,11,14,17,27.00
2014,07,11,14,18,27.00
2014,07,11,14,19,26.90
2014,07,11,14,20,26.90
2014,07,11,14,21,27.00
2014,07,11,14,22,27.10
2014,07,11,14,23,27.20
2014,07,11,14,24,27.30
2014,07,11,14,25,27.40
2014,07,11,14,26,27.50
2014,07,11,14,27,27.60
2014,07,11,14,28,27.60
2014,07,11,14,29,27.70
2014,07,11,14,30,27.70
2014,07,11,14,31,27.70
2014,07,11,14,32,27.60
2014,07,11,14,33,27.60
2014,07,11,14,34,27.50
2014,07,11,14,35,27.50
2014,07,11,14,36,27.50
2014,07,11,14,37,27.50
2014,07,11,14,38,27.50
2014,07,11,14,39,27.50
2014,07,11,14,40,27.50
2014,07,11,14,41,27.40
2014,07,11,14,42,27.50
2014,07,11,14,43,27.50
2014,07,11,14,44,27.60
2014,07,11,14,45,27.60
2014,07,11,14,46,27.70
2014,07,11,14,47,27.80
2014,07,11,14,48,27.90
2014,07,11,14,49,28.00
2014,07,11,14,50,28.00
2014,07,11,14,51,28.00
2014,07,11,14,52,27.90
2014,07,11,14,53,27.80
2014,07,11,14,54,27.80
2014,07,11,14,55,27.80
2014,07,11,14,56,27.80
2014,07,11,14,57,27.80
2014,07,11,14,58,27.90
2014,07,11,14,59,28.00
2014,07,11,15,00,28.00
2014,07,11,15,01,28.10
2014,07,11,15,02,28.10
2014,07,11,15,03,28.10
2014,07,11,15,04,28.10
2014,07,11,15,05,28.20
2014,07,11,15,06,28.20
2014,07,11,15,07,28.20
2014,07,11,15,08,28.20
2014,07,11,15,09,28.20
2014,07,11,15,10,28.10
2014,07,11,15,11,28.10
2014,07,11,15,12,28.10
2014,07,11,15,13,28.20
2014,07,11,15,14,28.30
2014,07,11,15,15,28.30
2014,07,11,15,16,28.40
2014,07,11,15,17,28.40
2014,07,11,15,18,28.50
2014,07,11,15,19,28.50
2014,07,11,15,20,28.50
2014,07,11,15,21,28.60
2014,07,11,15,22,28.60
2014,07,11,15,23,28.50
2014,07,11,15,24,28.50
2014,07,11,15,25,28.50
2014,07,11,15,26,28.50
2014,07,11,15,27,28.50
2014,07,11,15,28,28.60
2014,07,11,15,29,28.60
2014,07,11,15,30,28.60
2014,07,11,15,31,28.50
2014,07,11,15,32,28.40
2014,07,11,15,33,28.30
2014,07,11,15,34,28.30
2014,07,11,15,35,28.20
2014,07,11,15,36,28.10
2014,07,11,15,37,28.10
2014,07,11,15,38,28.10
2014,07,11,15,39,28.10
2014,07,11,15,40,28.10
2014,07,11,15,41,28.10
2014,07,11,15,42,28.10
2014,07,11,15,43,28.10
2014,07,11,15,44,28.10
2014,07,11,15,45,28.00
2014,07,11,15,46,28.00
2014,07,11,15,47,28.00
2014,07,11,15,48,27.90
2014,07,11,15,49,27.90
2014,07,11,15,50,28.00
2014,07,11,15,51,28.00
2014,07,11,15,52,28.10
2014,07,11,15,53,28.10
2014,07,11,15,54,28.20
2014,07,11,15,55,28.20
2014,07,11,15,56,28.30
2014,07,11,15,57,28.40
2014,07,11,15,58,28.50
2014,07,11,15,59,28.60
2014,07,11,16,00,28.70
2014,07,11,16,01,28.80
2014,07,11,16,02,28.80
2014,07,11,16,03,28.90
2014,07,11,16,04,28.90
2014,07,11,16,05,29.00
2014,07,11,16,06,29.00
2014,07,11,16,07,29.10
2014,07,11,16,08,29.10
2014,07,11,16,09,29.10
2014,07,11,16,10,29.10
2014,07,11,16,11,29.00
2014,07,11,16,12,29.00
2014,07,11,16,13,29.00
2014,07,11,16,14,29.10
2014,07,11,16,15,29.20
2014,07,11,16,16,29.20
2014,07,11,16,17,29.30
2014,07,11,16,18,29.30
2014,07,11,16,19,29.40
2014,07,11,16,20,29.50
2014,07,11,16,21,29.50
2014,07,11,16,22,29.50
2014,07,11,16,23,29.40
2014,07,11,16,24,29.40
2014,07,11,16,25,29.30
2014,07,11,16,26,29.30
2014,07,11,16,27,29.30
2014,07,11,16,28,29.30
2014,07,11,16,29,29.30
2014,07,11,16,30,29.40
2014,07,11,16,31,29.40
2014,07,11,16,32,29.50
2014,07,11,16,33,29.60
2014,07,11,16,34,29.70
2014,07,11,16,35,29.70
2014,07,11,16,36,29.70
2014,07,11,16,37,29.70
2014,07,11,16,38,29.70
2014,07,11,16,39,29.70
2014,07,11,16,40,29.80
2014,07,11,16,41,29.80
2014,07,11,16,42,29.80
2014,07,11,16,43,29.90
2014,07,11,16,44,29.90
2014,07,11,16,45,30.00
2014,07,11,16,46,30.10
2014,07,11,16,47,30.10
2014,07,11,16,48,30.20
2014,07,11,16,49,30.20
2014,07,11,16,50,30.20
2014,07,11,16,51,30.30
2014,07,11,16,52,30.30
2014,07,11,16,53,30.30
2014,07,11,16,54,30.30
2014,07,11,16,55,30.30
2014,07,11,16,56,30.40
2014,07,11,16,57,30.40
2014,07,11,16,58,30.40
2014,07,11,16,59,30.40
2014,07,11,17,00,30.40
2014,07,11,17,01,30.50
2014,07,11,17,02,30.60
2014,07,11,17,03,30.60
2014,07,11,17,04,30.50
2014,07,11,17,05,30.50
2014,07,11,17,06,30.50
2014,07,11,17,07,30.50
2014,07,11,17,08,30.50
2014,07,11,17,09,30.50
2014,07,11,17,10,30.50
2014,07,11,17,11,30.50
2014,07,11,17,12,30.50
2014,07,11,17,13,30.60
2014,07,11,17,14,30.60
2014,07,11,17,15,30.70
2014,07,11,17,16,30.70
2014,07,11,17,17,30.70
2014,07,11,17,18,30.70
2014,07,11,17,19,30.60